#timestamp,LO_Frequency,Hit,StdDev 
1532156415.1,286046999.4,N
1532156416.0,286046999.4,N
1532156435.8,286046998.7,N
1532156455.7,286046997.5,N
1532156475.5,286046997.2,N
1532156495.3,286046999.3,N
1532156515.2,286046996.8,N
1532156535.0,286046998.7,N
1532156535.9,286046998.7,N
1532156555.7,286046999.0,N
1532156575.6,286046998.7,N
1532156595.4,286046996.9,N
1532156615.3,286046997.3,N
1532156635.1,286046997.8,N
1532156636.0,286046997.8,N
1532156655.8,286046999.4,N
1532156675.7,286046997.9,N
1532156695.5,286047011.9,Y
1532156715.4,286046999.6,P
1532156735.2,286046998.1,P
1532156755.0,286047000.8,N
1532156755.9,286047000.8,N
1532156775.8,286046998.4,N
1532156795.6,286047000.7,N
1532156815.4,286046999.8,N
1532156835.3,286046999.9,N
1532156855.1,286046998.2,N
1532156875.9,286047001.1,N
1532156895.7,286046998.6,N
1532156915.5,286046998.3,N
1532156935.4,286046999.5,N
1532156955.2,286046996.7,Y
1532156975.0,286046999.2,P
1532156975.9,286046999.2,P
1532156995.8,286047000.8,P
1532157015.6,286046998.2,N
1532157035.5,286046999.2,N
1532157055.3,286046999.3,N
1532157075.1,286046998.6,N
1532157095.9,286047000.6,N
1532157115.7,286046999.8,N
1532157135.6,286046997.4,Y
1532157155.4,286046996.8,P
1532157175.2,286046996.7,N
1532157195.1,286046996.5,N
1532157196.0,286046996.5,N
1532157215.8,286046998.5,N
1532157235.6,286046998.7,N
1532157255.5,286046998.1,N
1532157275.3,286047000.6,N
1532157295.2,286047000.5,N
1532157315.9,286047002.0,N
1532157335.7,286047002.1,N
1532157355.6,286047000.1,N
1532157375.4,286046998.5,N
1532157395.2,286046998.5,N
1532157415.1,286047001.1,N
1532157416.0,286047001.1,N
1532157435.8,286047001.1,N
1532157455.7,286046999.6,N
1532157475.5,286046999.2,N
1532157495.3,286047001.1,N
1532157515.2,286047001.2,N
1532157535.9,286047002.8,N
1532157555.7,286046995.4,N
1532157575.6,286046995.2,N
1532157595.4,286046996.9,N
1532157615.3,286046999.1,N
1532157635.1,286046998.9,N
1532157636.0,286046998.9,N
1532157655.8,286046999.2,N
1532157675.7,286046996.5,N
1532157695.5,286046999.2,N
1532157715.3,286047000.0,N
1532157735.2,286047003.3,N
1532157755.0,286047003.5,N
1532157755.9,286047003.5,N
1532157775.8,286047001.3,N
1532157795.6,286047001.9,N
1532157815.4,286047002.5,N
1532157835.3,286047003.9,N
1532157855.1,286047002.7,N
1532157875.8,286047008.2,Y
1532157895.7,286047009.0,P
1532157915.5,286047007.5,N
1532157935.4,286047003.7,N
1532157955.2,286047001.5,N
1532157975.0,286047004.0,N
1532157975.9,286047004.0,N
1532157995.8,286047002.5,N
1532158015.6,286047000.5,N
1532158035.4,286047000.4,N
1532158055.3,286046999.9,N
1532158075.1,286047000.4,N
1532158095.9,286047004.1,N
1532158115.7,286047005.2,N
1532158135.5,286047005.2,N
1532158155.4,286047004.6,N
1532158175.2,286047004.4,N
1532158195.0,286047002.0,N
1532158196.0,286047002.0,N
1532158215.8,286047002.6,N
1532158235.6,286047002.8,N
1532158255.5,286047001.1,N
1532158275.3,286047000.2,N
1532158295.1,286046998.4,N
1532158315.9,286047001.2,N
1532158335.7,286047001.5,N
1532158355.6,286047002.2,N
1532158375.4,286047001.8,N
1532158395.2,286047002.4,N
1532158415.1,286047000.2,N
1532158416.0,286047000.2,N
1532158435.8,286046998.2,N
1532158455.6,286047000.7,N
1532158475.5,286047000.9,N
1532158495.3,286046998.6,N
1532158515.2,286046998.1,N
1532158535.9,286046998.9,N
1532158555.7,286046996.6,N
1532158575.6,286046995.0,N
1532158595.4,286046995.1,N
1532158615.2,286046997.9,N
1532158635.1,286046995.6,N
1532158636.0,286046995.6,N
1532158655.8,286046995.9,N
1532158675.7,286046993.8,N
1532158695.5,286046993.4,N
1532158715.3,286046994.0,N
1532158735.2,286046993.7,N
1532158755.0,286046995.7,N
1532158755.9,286046995.7,N
1532158775.8,286046993.8,N
1532158795.6,286046993.8,N
1532158815.4,286046994.1,N
1532158835.3,286046992.5,N
1532158855.1,286046992.2,N
1532158875.8,286046992.4,N
1532158895.7,286046992.2,N
1532158915.5,286046992.6,N
1532158935.4,286046990.9,Y
1532158955.2,286046996.4,P
1532158975.0,286046996.0,P
1532158975.9,286046996.0,P
1532158995.8,286046993.7,Y
1532159015.6,286047004.4,P
1532159035.5,286047003.8,N
1532159055.3,286047004.1,N
1532159075.1,286047004.0,N
1532159095.9,286047002.1,N
1532159115.7,286047001.4,N
1532159135.5,286047000.3,N
1532159155.4,286047000.1,N
1532159175.2,286047002.1,N
1532159195.1,286047002.7,N
1532159196.0,286047002.7,N
1532159215.8,286047002.8,N
1532159235.6,286046998.5,N
1532159255.5,286046998.7,N
1532159275.3,286046999.4,N
1532159295.1,286046998.2,N
1532159315.9,286046998.9,N
1532159335.7,286046999.3,N
1532159355.6,286046998.8,N
1532159375.4,286046998.2,N
1532159395.2,286047000.5,N
1532159415.1,286047000.9,N
1532159416.0,286047000.9,N
1532159435.8,286047000.9,N
1532159455.6,286047000.1,N
1532159475.5,286047003.5,N
1532159495.3,286047004.9,N
1532159515.2,286047006.9,Y
1532159535.9,286047003.2,P
1532159555.7,286047002.0,N
1532159575.6,286047002.3,N
1532159595.4,286047000.4,N
1532159615.3,286047001.2,N
1532159635.1,286046998.3,N
1532159636.0,286046998.3,N
1532159655.8,286047001.2,N
1532159675.7,286046999.7,N
1532159695.5,286047001.2,N
1532159715.3,286047000.7,N
1532159735.2,286047005.5,Y
1532159755.0,286047007.6,P
1532159755.9,286047007.6,N
1532159775.8,286047004.7,N
1532159795.6,286047005.1,N
1532159815.4,286047003.1,N
1532159835.3,286047003.7,N
1532159855.1,286047001.7,N
1532159875.8,286047001.5,N
1532159895.7,286047002.7,N
1532159915.5,286047000.3,N
1532159935.4,286047001.0,N
1532159955.2,286047001.0,N
1532159975.0,286046998.8,N
1532159975.9,286046998.8,N
1532159995.8,286046998.2,N
